{"data":{"norad_id":64817,"intl_designator":"2025-151B","name":"KUIPER-00070","alt_names":[],"object_type":"PAYLOAD","status":"ACTIVE","operator":null,"country":"US","launch_date":"2025-07-16","launch_site_code":"AFETR","launch_vehicle":null,"mission":null,"orbit_class":"UNKNOWN","rcs_meters":null,"size_class":null,"mass_kg":null,"dimensions":null,"purposes":[],"wikipedia_slug":null,"has_3d_model":false,"image_url":null,"decayed_at":null,"tle_current":{"epoch":"2026-05-24T21:28:02.607168Z","epoch_age_seconds":78101,"freshness":"FRESH","line1":"1 64817U 25151B   26144.89447462  .00003294  00000+0  46040-3 0  9995","line2":"2 64817  51.9001 328.5780 0000788 124.2770 235.8267 14.79973525 47706","mean_motion":14.79973525,"eccentricity":7.88e-5,"inclination_deg":51.9001,"raan_deg":328.578,"arg_perigee_deg":124.277,"mean_anomaly_deg":235.8267,"bstar":0.0004604,"rev_number":4770,"period_min":97.29903783245,"perigee_km":628.8555101885,"apogee_km":629.95989923397,"semimajor_km":7007.5447047112,"source":"CELESTRAK","updated_at":"2026-05-25T13:38:04.821360Z"}}}